Regional Weather Roundup
Issued by NWS

Home | Current Version | Previous Version | Graphics & Text | Print | Product List | Glossary Off
Versions: 1 2 3 4 5 6 7 8 9 10 11 12 13 14 15 16 17 18 19 20 21 22 23 24 25 26 27 28 29 30 31 32 33 34 35 36 37 38 39 40 41 42 43 44 45 46 47 48 49 50

000
ASUS43 KMPX 220410
RWRMN
WEATHER ROUNDUP FOR MINNESOTA
NATIONAL WEATHER SERVICE TWIN CITIES/CHANHASSEN MN
1000 PM CST SAT JAN 21 2017


NOTE: "FAIR" INDICATES FEW OR NO CLOUDS BELOW 12,000 FEET WITH NO
SIGNIFICANT WEATHER AND/OR OBSTRUCTIONS TO VISIBILITY. N/A MEANS
CURRENT SKY AND/OR WEATHER CONDITIONS ARE NOT AVAILABLE.

MNZ060>063-068>070-220500-
   Twin Cities Metro

CITY           SKY/WX    TMP DP  RH WIND       PRES   REMARKS
TWIN CITIES    DRZL/FOG  37  35  92 CALM      29.53R VSB 1/2
ST PAUL        FOG       34  34 100 CALM      29.54R VSB 1/4
CRYSTAL        FOG       35  33  92 CALM      29.52R VSB 1/4
BLAINE         FOG       37  37 100 CALM      29.53R VSB 1/2
LAKEVILLE      FOG       32  32 100 CALM      29.53R VSB 1/4
EDEN PRAIRIE   FOG       36  35  96 CALM      29.52R VSB 1/4
SOUTH ST PAUL  FOG       36  36  99 CALM      29.52S VSB 1/2
LAKE ELMO      FOG       34  34 100 CALM      29.53R VSB 1/2
$$
MNZ001>005-007-008-013>017-022>024-027-028-220500-
   Northwest Minnesota

CITY           SKY/WX    TMP DP  RH WIND       PRES   REMARKS
BEMIDJI        FOG       33  33 100 NE3       29.54R VSB 1/2
HALLOCK        DRIZZLE   36  34  93 E5        29.56S
ROSEAU         HAZE      36  30  80 E5        29.57S VSB 1/2
WARROAD        FOG       34  30  86 NE3       29.58S VSB 1/4
THIEF RVR FALL LGT RAIN  34  34 100 E5        29.56S WCI  30
CROOKSTON      CLOUDY    36  34  93 E3        29.56S
FOSSTON        FOG       32  30  93 CALM      29.55R VSB 3/4
DETROIT LAKES  FOG       34  34 100 CALM      29.55R VSB 1/2
MOORHEAD       CLOUDY    34  32  93 CALM      29.56R FOG
PARK RAPIDS    FOG       35  33  92 N3        29.52R VSB 1/2
MAHNOMEN       CLOUDY    34  33  97 CALM      29.55R
$$
MNZ006-009>011-018-025>026-220500-
   North Central Minnesota

CITY           SKY/WX    TMP DP  RH WIND       PRES   REMARKS
BAUDETTE       CLOUDY    34  33  96 E5        29.56S WCI  30
FLAG ISLAND    CLOUDY    34  34 100 CALM      29.57S FOG
INTL FALLS     FOG       35  33  92 CALM      29.57R VSB 1/4
WASKISH        FOG       36  34  93 CALM      29.56R VSB 3/4
BIG FORK       FOG       36  34  93 CALM      29.54S VSB 1/2
LONGVILLE      FOG       34  34 100 CALM      29.53R VSB 1/2
GRAND RAPIDS   FOG       34  34 100 N3        29.55R VSB 1/4
CRANE LAKE     CLOUDY    32  32 100 CALM      29.58R FOG
ORR            FOG       34  32  93 CALM      29.53R VSB 3/4
COOK           FOG       34  34 100 CALM      29.55R VSB 3/4
WALKER         FOG       33  33  99 CALM      29.54R VSB 1
$$
MNZ012-019>021-037-220500-
   Northeast Minnesota

CITY           SKY/WX    TMP DP  RH WIND       PRES   REMARKS
DULUTH         DRZL/FOG  34  34 100 NE8       29.51S VSB 1   WCI  27
ELY            CLOUDY    34  34 100 CALM      29.54R
HIBBING        CLOUDY    33  33 100 CALM      29.53R FOG
EVELETH        CLOUDY    35  35  99 CALM      29.54S
DULUTH HARBOR  CLOUDY    36  34  93 NE13      29.54S FOG
TWO HARBORS    CLOUDY    37  34  87 NE6       29.52R FOG
SILVER BAY     CLOUDY    36  36 100 NE8       29.52S FOG
GRAND MARAIS     N/A     37  35  92 NE6       29.55R
G MARAIS ARPRT CLOUDY    32  28  86 N7        29.52S FOG     WCI  26
$$
MNZ029>031-032-039>041-046>048-054>057-064-220500-
   West Central Minnesota

CITY           SKY/WX    TMP DP  RH WIND       PRES   REMARKS
FERGUS FALLS   CLOUDY    34  34 100 CALM      29.58R FOG
WHEATON        FOG       39  39 100 CALM      29.57R VSB 1/2
MORRIS         FOG       34  34 100 CALM      29.53R VSB 1
ALEXANDRIA     FOG       33  33 100 W3        29.53R VSB 1/2
ELBOW LAKE     SNOW      33  33 100 CALM      29.54S VSB 1/2
WADENA         FOG       34  34 100 CALM      29.53R VSB 1/2
GLENWOOD       FOG       34  34 100 CALM      29.53R VSB 1/4
APPLETON       FOG       34  34 100 CALM      29.54R VSB 1/2
BENSON         CLOUDY    36  32  87 CALM      29.55R
ORTONVILLE     FOG       34  30  86 CALM      29.54R VSB 1/4
MADISON        FOG       36  36 100 CALM      29.54R VSB 1/2
WILLMAR        MIX PCPN  36  36 100 CALM      29.55R VSB 3/4
$$
MNZ033>034-036-042>043-049>051-058-059-220500-
   Central Minnesota

CITY           SKY/WX    TMP DP  RH WIND       PRES   REMARKS
ST CLOUD       FOG       33  33 100 NW3       29.53R VSB 1/4
SAUK CENTRE    FOG       33  33 100 CALM      29.53R VSB 1/4
PAYNESVILLE    FOG       33  33 100 CALM      29.53R VSB 1/2
AITKIN         CLOUDY    36  34  93 CALM      29.52R
PINE RIVER     FOG       34  34 100 CALM      29.58R VSB 1/2
BRAINERD       CLOUDY    34  34 100 NE5       29.53R FOG     WCI  30
STAPLES        FOG       34  34 100 CALM      29.53R VSB 1/2
LONG PRAIRIE   SNOW      32  32 100 CALM      29.53R VSB 1/2
LITTLE FALLS   FOG       34  32  93 CALM      29.54R VSB 3/4
LITCHFIELD     FOG       36  34  93 CALM      29.53R VSB 1/2
BUFFALO        FOG       34  33  96 CALM      29.54R VSB 1/4
MAPLE LAKE     FOG       35  35 100 CALM      29.54R VSB 1/2
HUTCHINSON     FOG       34  34 100 CALM      29.54R VSB 1/2
$$
MNZ037-044-045-052-053-220500-
   East Central Minnesota

CITY           SKY/WX    TMP DP  RH WIND       PRES   REMARKS
PRINCETON      FOG       36  36 100 CALM      29.53R VSB 3/4
MORA           CLOUDY    34  32  93 CALM      29.55R
CAMBRIDGE      FOG       37  36  93 CALM      29.51R VSB 1/2
RUSH CITY      FOG       34  34 100 CALM      29.53R VSB 1/2
MOOSE LAKE     FOG       34  32  93 NE3       29.51S VSB 3/4
HINCKLEY       CLOUDY    34  34 100 CALM      29.53R
CLOQUET        CLOUDY    34  34 100 CALM      29.52R FOG
MCGREGOR       CLOUDY    34  34 100 CALM      29.53R
$$
MNZ071>073-080-081-089-090-097-098-220500-
   Southwest Minnesota

CITY           SKY/WX    TMP DP  RH WIND       PRES   REMARKS
MONTEVIDEO     FOG       34  34 100 CALM      29.55R VSB 1/2
GRANITE FALLS  FOG       35  35 100 CALM      29.55R VSB 1/2
CANBY          CLOUDY    35  35 100 CALM      29.55R
MARSHALL       CLOUDY    34  34 100 NW9       29.54R FOG     WCI  26
REDWOOD FALLS  FOG       35  33  92 CALM      29.53R VSB 1/4
OLIVIA         FOG       34  34 100 N3        29.53R VSB 1/2
PIPESTONE      CLOUDY    32  32 100 NW7       29.52R FOG     WCI  26
WINDOM         FOG       34  34 100 W7        29.53R VSB 3/4 WCI  28
WORTHINGTON    CLOUDY    31  31 100 W10       29.53R FOG     WCI  22
JACKSON        CLOUDY    32  32 100 W9        29.53R FOG     WCI  24
TRACY          CLOUDY    34  34  99 NW8       29.53R FOG     WCI  27
SLAYTON        CLOUDY    32  32 100 W9        29.52R FOG     WCI  24
$$
MNZ065>067-074>077-082>085-091>093-220500-
   South Central Minnesota

CITY           SKY/WX    TMP DP  RH WIND       PRES   REMARKS
MANKATO        LGT RAIN  35  34  96 CALM      29.53R VSB 3/4
NEW ULM        FOG       34  34 100 CALM      29.53R VSB 1/4
ST JAMES       DRIZZLE   34  34 100 SW3       29.54R
FAIRMONT       CLOUDY    33  31  92 W6        29.54R WCI  28
GLENCOE        FOG       35  35 100 CALM      29.52S VSB 1/4
OWATONNA       FOG       36  34  93 SW7       29.52S VSB 1/2
WASECA         FOG       34  34 100 SW9       29.54R VSB 1/2 WCI  26
ALBERT LEA     CLOUDY    36  36 100 SW3       29.53R FOG
$$
MNZ078>079-086>088-094>096-220500-
   Southeast Minnesota

CITY           SKY/WX    TMP DP  RH WIND       PRES   REMARKS
ROCHESTER      FOG       34  34 100 SW10      29.51S VSB 1/2 WCI  26
RED WING       FOG       36  34  93 CALM      29.52S VSB 1/4
STANTON        FOG       34  33  95 CALM      29.51S VSB 3/4
DODGE CENTER   SNOW      34  34 100 CALM      29.51S VSB 1/2
WINONA         CLOUDY    36  36 100 CALM      29.53S FOG
AUSTIN         CLOUDY    36  34  93 W5        29.52S FOG
PRESTON        FOG       35  34  96 SW5       29.53R VSB 1/4 WCI  31
$$
ABBREVIATIONS USED IN REMARKS
   TC - TEMPERATURES IN CELSIUS
  WCI - WIND CHILL INDEX
   HX - HEAT INDEX
  VSB - VISIBILITY
$$




USA.gov is the U.S. government's official web portal to all federal, state and local government web resources and services.